Regional Weather Roundup
Issued by NWS Cleveland, OH

Home | Current Version | Previous Version | Graphics & Text | Print | Product List | Glossary On
Versions: 1 2 3 4 5 6 7 8 9 10 11 12 13 14 15 16 17 18 19 20 21 22 23 24 25 26 27 28 29 30 31 32 33 34 35 36 37 38 39 40 41 42 43 44 45 46 47 48 49 50
000
ASUS41 KCLE 301710
RWRCLE
OHIO REGIONAL WEATHER ROUNDUP
NATIONAL WEATHER SERVICE WILMINGTON, OH
1200 PM EST FRI JAN 30 2015

NOTE: "FAIR" INDICATES FEW OR NO CLOUDS BELOW 12,000 FEET WITH NO
SIGNIFICANT WEATHER AND/OR OBSTRUCTIONS TO VISIBILITY.

OHZ001>008-015>018-024>027-034-035-043-044-301800-
   NORTHWEST OHIO

CITY           SKY/WX    TMP DP  RH WIND       PRES   REMARKS
DEFIANCE       PTSUNNY   25  10  53 NW13      30.47R WCI  14
FINDLAY        PTSUNNY   23   9  55 NW15      30.43R WCI  10
TOLEDO EXPRESS MOSUNNY   20   7  57 NW17G24   30.45R WCI   5
TOLEDO EXEC    SUNNY     21   6  52 N13       30.46R WCI   9
LIMA           MOSUNNY   23  10  57 NW14      30.43R WCI  11
$$

OHZ009>014-019>023-028>033-038-089-301800-
   NORTHEAST OHIO

CITY           SKY/WX    TMP DP  RH WIND       PRES   REMARKS
CLE-HOPKINS    CLOUDY    17   8  67 NW21G31   30.41R WCI   0
CLE-LAKEFRONT  CLOUDY    17   9  70 NW24      30.39R WCI  -1
CUY CO. ARPT   CLOUDY    18  12  79 NW12G23   30.36R WCI   5
LORAIN-ELYRIA  FLURRIES  16   7  67 N20       30.40R WCI  -1
ASHTABULA      LGT SNOW  17  11  77 N9G22     30.30R WCI   6
AKRON-CANTON   LGT SNOW  17   9  70 NW15      30.31R WCI   2
WOOSTER        CLOUDY    17   8  67 NW15      30.36R WCI   2
MANSFIELD      FLURRIES  17   9  70 NW20      30.36R WCI   1
YOUNGSTOWN     LGT SNOW  15   9  76 NW17G29   30.27R VSB 3/4 WCI  -1
$$

OHZ042-051>053-060>062-070>072-077>081-301800-
  SOUTHWEST OHIO

CITY           SKY/WX    TMP DP  RH WIND       PRES   REMARKS
CINC-COVINGTON NOT AVBL
CINC-LUNKEN    CLOUDY    27  14  58 N12       30.50R WCI  17
HAMILTON       FLURRIES  28  13  53 N15       30.49R WCI  16
DAYTON         CLOUDY    24  13  62 NW16G23   30.45S WCI  11
WRIGHT-PAT AFB CLOUDY    24  13  62 NW16      30.45R WCI  11
DAYTON GENERAL CLOUDY    26  12  55 N14       30.44R WCI  14
WILMINGTON     CLOUDY    23  11  60 N15       30.43R WCI  10
$$

OHZ036-037-039>041-045>050-054>059-063>069-073>076-082>088-301800-
  CENTRAL AND SOUTHEAST OHIO

CITY           SKY/WX    TMP DP  RH WIND       PRES   REMARKS
COLUMBUS       PTSUNNY   23  11  60 N20G26    30.40S WCI   8
OSU AIRPORT    FAIR      21   8  57 N16G30    30.40R WCI   7
BOLTON FIELD   PTSUNNY   23  10  58 MISG      30.42R
RICKENBACK AFB MOSUNNY   24  11  59 N16G23    30.42R WCI  11
NEWARK         PTSUNNY   22   9  57 N10       30.38R WCI  11
MARION         MOSUNNY   19   8  62 N20       30.41R WCI   3
LANCASTER      CLOUDY    23  12  62 N14G21    30.40R WCI  11
ZANESVILLE     PTSUNNY   22  12  65 NW17G23   30.36R WCI   8
NEW PHILLY     CLOUDY    20   9  62 NW16G22   30.35R WCI   6
$$



USA.gov is the U.S. government's official web portal to all federal, state and local government web resources and services.